SCP
-0 -0 0 0 0 0 0 -0 -0 -0 -0 -0 0 0 0 0 0 0 0 0 0 0 -0 -0 -0 -0 -0 -0 -0 -0 -0 -0 -0 -0 -0 -0 -0 -0 -0 -0 -0 0 -0
-0 0 0 0 0 0 0 -0 -0 -0 -0 -0 -0 0 0 0 0 0 0 0 -0 -0 -0 -0 -0 -0 -0 -0 -0 -0 -0 -0 -0 -0 -0 -0 -0 -0 -0 -0 -0 -0 -0
0 0 0 0 0 0 0 0 -0 -0 -0 0 -0 -0 0 0 0 0 -0 -0 -0 -0 -0 0 -0 -0 -0 -0 -0 -0 -0 -0 -0 -0 -0 0 -0 -0 -0 -0 -0 -0 -0
0 0 0 0 0 0 0 0 0 0 -0 -0 0 0 0 0 0 -0 -0 0 0 0 -0 0 0 0 0 0 0 0 -0 -0 -0 0 0 0 -0 -0 -0 -0 -0 -0 -0
0 0 0 0 0 0 0 0 0 0 0 0 0 0 0 0 0 -0 0 0 0 0 0 0 0 0 0 0 0 0 0 -0 -0 0 0 0 -0 -0 -0 -0 -0 -0 -0
0 0 0 0 0 0 0 0 0 0 0 0 0 0 0 0 0 -0 -0 0 0 0 0 0 0 0 0 -0 -0 0 0 0 0 -0 0 0 0 -0 -0 -0 -0 -0 -0
0 0 0 0 0 0 0 0 0 0 0 0 0 0 0 -0 0 0 0 0 0 0 0 0 0 -0 0 0 0 0 0 -0 -0 -0 -0 -0 -0 -0 -0 -0 -0 -0 -0
0 0 0 0 0 0 0 0 -0 0 -0 0 0 0 0 0 0 0 0 0 0 0 0 0 0 0 0 0 0 0 0 -0 -0 -0 -0 -0 -0 -0 -0 -0 -0 -0 -0
-0 -0 -0 -0 0 0 0 0 0 0 0 0 0 0 0 0 0 0 0 0 0 0 0 0 0 0 0 0 0 0 -0 -0 -0 -0 -0 -0 -0 -0 -0 -0 -0 -0 -0
-0 -0 -0 -0 -0 -0 -0 0 0 0 0 0 0 0 0 0 0 0 0 0 0 0 0 0 0 0 0 0 0 0 -0 -0 0 0 -0 -0 -0 -0 -0 -0 -0 -0 -0
-0 -0 -0 -0 -0 -0 -0 0 0 0 0 0 0 0 0 0 0 0 0 0 0 0 0 0 0 0 0 0 0 0 0 0 0 0 0 -0 -0 -0 -0 -0 -0 -0 -0
0 -0 -0 -0 -0 -0 -0 0 0 0 0 0 0 0 0 0 0 0 0 0 0 0 0 0 0 0 0 0 0 0 0 0 0 0 0 0 -0 -0 -0 -0 -0 -0 -0
0 -0 -0 -0 -0 -0 -0 0 0 0 0 0 0 0 0 0 0 0 -0 -0 -0 0 0 0 0 0 -0 0 0 0 0 0 0 0 0 -0 -0 -0 -0 -0 -0 -0 -0
0 0 -0 -0 -0 -0 -0 0 0 -0 -0 0 -0 0 0 0 0 -0 -0 -0 0 0 0 0 0 0 0 -0 0 0 0 0 0 0 0 -0 -0 -0 -0 -0 -0 -0 0
0 0 0 -0 -0 -0 -0 0 0 -0 -0 -0 0 0 0 0 0 0 0 -0 0 0 0 0 0 0 0 0 0 0 -0 0 0 0 0 -0 -0 -0 0 -0 -0 -0 -0
0 0 0 -0 -0 -0 -0 -0 -0 -0 -0 -0 0 0 0 0 0 0 0 0 0 0 0 -0 0 0 0 0 0 0 0 0 0 0 0 0 0 -0 -0 -0 -0 -0 0
0 0 0 -0 -0 -0 -0 -0 -0 -0 -0 0 0 0 0 0 0 0 0 0 0 0 0 0 -0 -0 0 0 -0 0 0 0 0 0 0 0 0 -0 0 -0 -0 -0 0
0 -0 -0 -0 -0 -0 -0 -0 -0 -0 0 0 0 0 0 0 0 0 0 0 0 0 -0 -0 0 0 0 0 0 0 0 0 0 0 0 0 0 0 0 -0 0 -0 -0
0 -0 -0 -0 -0 -0 -0 -0 -0 0 0 0 0 0 0 0 0 0 0 0 0 0 0 0 0 0 0 0 0 0 0 0 0 0 0 0 0 0 0 0 -0 -0 -0
0 0 -0 -0 -0 -0 -0 -0 -0 0 -0 -0 0 0 0 0 0 0 -0 0 0 0 0 0 -0 -0 -0 0 -0 -0 0 0 0 0 0 0 0 0 0 0 -0 0 -0
0 0 -0 -0 -0 -0 -0 -0 -0 0 0 0 0 0 0 0 0 0 -0 -0 0 0 0 0 0 -0 -0 -0 -0 -0 0 0 0 0 0 0 0 0 0 0 0 0 0
0 0 -0 -0 -0 0 0 0 0 0 0 0 0 0 0 0 0 0 0 0 0 0 0 0 0 -0 -0 -0 -0 0 -0 0 0 0 0 0 0 0 0 0 0 0 0
0 0 0 0 0 0 0 0 0 0 0 0 0 0 -0 0 -0 0 0 0 0 0 0 0 0 -0 -0 -0 -0 0 -0 0 0 0 0 0 0 0 0 0 0 0 0
0 0 0 0 0 0 0 0 0 0 0 -0 0 0 -0 -0 -0 -0 0 0 0 0 0 0 0 -0 -0 -0 -0 -0 -0 0 0 -0 0 0 0 0 0 0 0 0 0
0 0 0 0 0 0 0 0 0 0 -0 0 0 -0 -0 -0 0 -0 -0 0 -0 0 -0 0 0 0 -0 -0 0 0 0 -0 -0 -0 0 0 0 0 0 0 0 0 0
0 0 0 0 0 0 0 0 0 0 -0 -0 -0 -0 -0 -0 0 -0 -0 -0 -0 -0 -0 -0 0 -0 -0 -0 -0 -0 0 0 0 0 0 0 0 0 0 0 0 0 0
Wind_Speed_500mb
56 58 58 57 51 46 43 39 36 35 33 31 29 27 28 28 27 24 23 22 19 15 14 16 18 17 15 17 18 18 16 16 16 17 20 22 20 18 20 25 24 25 27
62 60 59 54 49 47 42 38 36 35 35 33 31 30 29 28 27 26 26 23 20 19 24 25 19 17 19 22 24 23 22 22 22 23 21 19 17 15 21 23 23 25 25
63 61 56 51 48 45 40 38 37 37 35 34 32 32 32 30 28 28 27 25 25 29 24 21 21 23 26 26 27 28 29 28 28 26 24 19 21 23 23 22 25 25 25
64 62 56 49 46 43 40 38 37 35 34 32 32 32 30 30 30 30 29 26 26 26 26 26 24 28 30 31 31 32 32 30 31 25 20 19 22 22 25 23 25 26 26
64 61 58 50 44 41 38 36 33 34 34 31 34 30 30 31 29 28 28 29 30 29 28 28 26 31 30 29 31 30 27 26 28 29 23 18 15 18 20 24 24 25 25
64 60 57 48 41 39 37 34 32 33 32 34 31 29 30 30 29 28 29 29 29 28 24 23 25 28 30 31 34 29 29 29 27 24 22 19 18 21 21 22 23 25 27
65 60 54 46 39 37 36 33 32 31 33 33 33 28 30 32 31 31 32 32 30 28 26 25 24 24 26 28 27 25 29 28 22 19 19 19 19 20 20 20 23 25 25
63 59 52 44 39 36 35 32 29 31 31 31 31 30 28 31 33 35 35 34 32 29 26 22 20 23 22 23 26 27 23 21 20 23 20 17 16 17 19 22 22 23 24
59 57 51 46 40 36 34 32 30 29 30 30 30 30 29 32 34 34 33 32 29 27 26 27 22 23 24 22 20 24 27 25 27 23 19 16 16 16 19 19 21 22 23
56 56 52 47 41 37 34 31 30 28 29 30 30 29 29 31 32 32 31 30 27 29 27 29 28 23 25 21 19 24 22 19 18 17 15 16 16 16 18 20 20 21 21
54 53 51 46 41 37 34 31 31 28 29 32 30 28 27 27 30 30 28 28 26 25 27 28 28 27 23 19 15 21 17 14 13 12 12 15 16 16 17 19 19 18 19
58 55 50 46 41 38 34 32 32 32 32 33 28 26 25 23 24 25 25 26 24 23 24 24 23 23 21 13 12 21 17 15 11 11 11 13 14 15 17 17 19 17 18
61 55 51 46 41 37 34 33 32 31 32 25 28 25 21 16 20 22 23 24 25 23 24 21 17 18 15 13 14 12 13 14 12 10 10 11 13 15 15 15 16 15 17
63 56 51 46 42 38 35 33 32 29 26 25 22 15 14 13 16 21 23 23 19 18 17 21 18 14 9 16 15 9 10 9 8 7 7 10 10 12 12 12 13 14 15
65 58 53 47 42 40 37 34 33 27 28 30 22 24 15 16 13 14 19 14 17 16 22 22 17 12 10 10 12 10 11 6 5 5 8 9 11 11 12 13 11 11 12
66 59 53 50 44 43 40 39 34 30 29 24 18 16 12 11 12 17 18 16 13 18 11 13 11 12 14 21 12 12 11 12 9 7 13 6 10 10 9 11 11 9 8
68 59 56 53 49 48 40 41 37 29 25 24 17 16 13 8 15 11 13 17 15 12 7 12 12 5 9 12 10 13 12 14 11 10 11 8 10 11 9 8 7 6 7
68 64 56 58 54 54 43 43 36 27 27 27 25 17 12 4 9 4 14 18 12 11 7 7 6 1 12 12 15 7 9 11 11 10 10 10 11 10 10 8 7 8 6
71 65 61 64 59 59 48 48 38 31 30 32 26 22 12 5 4 6 9 16 10 13 13 8 7 5 13 20 14 10 8 6 7 8 8 8 9 8 9 9 4 4 3
72 67 64 68 63 56 53 49 41 33 35 36 30 24 17 10 4 11 11 10 15 13 11 12 9 6 11 18 16 9 9 10 5 9 9 8 5 5 4 3 1 1 4
78 75 72 71 68 63 59 57 56 49 42 38 33 28 22 19 13 9 13 11 15 9 16 13 11 12 11 17 19 17 13 13 11 10 8 12 7 3 3 2 4 6 6
86 85 79 78 74 72 66 62 59 59 56 47 40 34 31 26 21 15 15 18 15 15 12 11 12 21 16 13 22 20 15 12 12 11 8 7 7 8 7 5 4 3 4
93 90 88 86 80 83 76 70 69 61 63 60 56 46 37 31 27 21 15 20 19 21 15 14 13 19 15 17 19 13 14 9 15 11 13 15 13 13 13 1 7 3 3
105 99 93 86 85 86 86 76 72 67 75 74 66 55 45 37 32 27 22 20 25 25 20 14 18 20 17 25 21 15 19 14 17 13 19 17 17 19 12 5 3 5 7
105 106 102 96 89 86 93 84 73 69 68 77 72 61 54 45 39 33 27 23 27 29 24 18 19 26 23 27 25 19 23 16 20 16 16 22 22 19 15 10 5 4 1
102 112 110 104 99 90 95 90 81 71 65 66 68 67 57 53 52 43 33 30 31 28 26 25 21 24 28 26 24 30 23 21 24 22 22 18 21 17 17 18 17 12 11
Wind_Direction_500mb
144 140 139 136 134 132 129 126 127 124 126 128 130 133 138 142 142 141 139 134 131 121 119 112 100 91 103 124 136 136 135 130 121 112 103 105 108 109 94 102 100 98 97
148 144 144 141 137 134 133 130 124 125 126 127 132 135 137 135 136 135 131 131 129 124 115 103 94 88 102 110 117 123 125 125 118 104 106 113 118 107 96 101 100 98 100
150 147 148 144 140 137 134 128 125 124 125 126 123 128 128 129 131 130 128 121 120 120 110 104 100 96 102 108 113 116 119 114 117 122 114 111 115 110 104 105 105 105 107
151 150 153 147 141 139 134 130 127 125 124 126 127 123 123 123 124 126 128 122 117 113 105 108 99 104 106 104 114 117 118 107 108 111 122 115 111 105 107 108 109 109 110
154 154 152 149 144 139 134 128 127 126 125 120 119 120 119 117 122 123 125 119 110 106 102 99 99 106 111 111 120 117 121 111 106 93 99 99 113 115 115 114 114 114 113
153 154 153 151 146 140 135 131 128 123 125 122 113 117 123 122 122 121 118 116 110 104 101 105 109 116 115 112 118 111 113 121 99 88 90 103 113 118 118 111 116 117 116
154 155 155 154 149 144 137 135 129 124 128 124 120 120 119 118 119 116 114 111 106 101 97 101 114 124 125 118 118 116 104 105 90 85 95 106 112 117 122 120 123 122 119
155 156 157 157 154 148 140 139 136 130 132 130 127 122 121 117 116 113 108 105 106 102 91 91 118 129 140 123 113 111 107 95 92 92 92 100 113 123 125 123 126 125 123
159 159 159 160 158 150 145 144 139 135 135 134 131 129 126 123 118 114 109 106 108 99 84 79 101 122 139 128 119 123 107 92 89 91 98 96 113 120 125 127 125 129 130
162 161 161 162 160 153 151 144 138 141 140 137 133 132 130 127 125 122 116 111 110 99 91 88 99 116 130 129 114 111 107 108 101 88 99 107 117 124 130 130 134 133 132
168 167 168 164 161 160 155 145 143 150 145 139 132 130 131 132 134 132 125 116 112 112 101 100 101 111 126 128 114 108 110 112 99 76 112 117 129 128 131 134 136 133 135
173 172 171 166 166 166 157 150 154 159 149 141 134 137 137 137 137 139 134 126 124 120 117 113 113 117 125 122 115 121 107 98 88 73 106 123 136 139 138 132 132 133 140
176 176 175 171 172 169 159 157 158 159 151 154 138 135 139 146 140 142 134 127 121 115 117 120 125 115 125 141 114 123 123 81 94 93 112 126 130 140 142 144 144 136 138
180 181 177 176 177 173 165 164 164 159 151 148 151 151 149 147 138 138 131 121 116 126 128 138 134 132 147 168 161 142 125 140 118 115 112 122 137 139 143 145 151 155 151
184 184 183 181 181 177 171 169 167 157 151 156 136 120 128 131 143 162 159 145 124 105 132 142 137 130 113 143 146 141 117 132 138 116 94 121 141 154 152 154 157 155 161
186 187 186 187 184 179 172 170 161 163 155 163 152 138 134 152 135 122 136 158 141 145 134 167 154 144 121 129 125 155 151 128 132 120 73 104 139 147 157 159 160 164 180
189 188 192 192 186 177 172 174 178 177 177 184 148 154 157 139 146 139 161 147 127 127 148 158 145 151 146 153 133 135 129 138 122 117 94 97 124 143 152 161 164 174 199
192 193 194 195 191 185 182 181 184 196 196 188 189 191 186 206 203 207 183 175 148 144 142 143 124 69 164 158 144 178 138 141 131 127 120 98 96 116 133 149 180 195 207
195 195 198 195 192 193 188 188 199 207 198 190 189 194 197 221 228 217 174 186 178 171 176 170 142 143 144 154 144 146 166 150 176 157 152 109 104 103 119 118 143 179 204
201 199 197 197 197 196 196 198 203 209 205 201 205 199 202 221 239 210 210 193 199 192 198 169 181 215 169 160 156 144 173 200 203 184 155 175 131 139 117 74 14 71 46
206 203 200 201 202 201 200 201 206 212 209 208 207 204 217 229 231 240 226 222 206 209 190 201 208 201 177 171 166 176 187 187 183 165 200 211 209 203 208 237 57 155 1
208 209 209 208 211 209 208 208 211 212 217 221 222 213 216 222 228 238 239 231 239 212 212 232 210 185 192 182 168 159 176 200 206 223 218 199 207 229 222 270 275 299 306
211 209 213 216 219 217 215 215 217 219 223 224 223 221 218 220 224 230 238 233 234 212 208 216 196 185 195 179 176 180 170 200 199 231 221 220 227 224 217 180 38 348 101
214 214 215 216 222 220 218 219 222 226 224 225 227 227 225 225 226 224 237 240 232 228 216 207 211 203 203 188 187 216 208 210 193 214 223 216 223 223 222 209 164 71 65
208 214 215 219 221 220 219 221 223 227 229 228 229 230 228 227 232 232 231 244 241 231 216 208 217 208 200 205 221 224 218 217 222 239 227 230 237 233 231 242 251 214 105
207 214 216 218 221 222 221 222 224 228 231 230 230 229 226 228 231 233 230 239 241 230 222 217 209 210 211 213 229 224 222 228 229 232 247 249 257 263 268 260 257 262 250
Wind_Speed_850mb
56 58 58 57 51 46 43 39 36 35 33 31 29 27 28 28 27 24 23 22 19 15 14 16 18 17 15 17 18 18 16 16 16 17 20 22 20 18 20 25 24 25 27
62 60 59 54 49 47 42 38 36 35 35 33 31 30 29 28 27 26 26 23 20 19 24 25 19 17 19 22 24 23 22 22 22 23 21 19 17 15 21 23 23 25 25
63 61 56 51 48 45 40 38 37 37 35 34 32 32 32 30 28 28 27 25 25 29 24 21 21 23 26 26 27 28 29 28 28 26 24 19 21 23 23 22 25 25 25
64 62 56 49 46 43 40 38 37 35 34 32 32 32 30 30 30 30 29 26 26 26 26 26 24 28 30 31 31 32 32 30 31 25 20 19 22 22 25 23 25 26 26
64 61 58 50 44 41 38 36 33 34 34 31 34 30 30 31 29 28 28 29 30 29 28 28 26 31 30 29 31 30 27 26 28 29 23 18 15 18 20 24 24 25 25
64 60 57 48 41 39 37 34 32 33 32 34 31 29 30 30 29 28 29 29 29 28 24 23 25 28 30 31 34 29 29 29 27 24 22 19 18 21 21 22 23 25 27
65 60 54 46 39 37 36 33 32 31 33 33 33 28 30 32 31 31 32 32 30 28 26 25 24 24 26 28 27 25 29 28 22 19 19 19 19 20 20 20 23 25 25
63 59 52 44 39 36 35 32 29 31 31 31 31 30 28 31 33 35 35 34 32 29 26 22 20 23 22 23 26 27 23 21 20 23 20 17 16 17 19 22 22 23 24
59 57 51 46 40 36 34 32 30 29 30 30 30 30 29 32 34 34 33 32 29 27 26 27 22 23 24 22 20 24 27 25 27 23 19 16 16 16 19 19 21 22 23
56 56 52 47 41 37 34 31 30 28 29 30 30 29 29 31 32 32 31 30 27 29 27 29 28 23 25 21 19 24 22 19 18 17 15 16 16 16 18 20 20 21 21
54 53 51 46 41 37 34 31 31 28 29 32 30 28 27 27 30 30 28 28 26 25 27 28 28 27 23 19 15 21 17 14 13 12 12 15 16 16 17 19 19 18 19
58 55 50 46 41 38 34 32 32 32 32 33 28 26 25 23 24 25 25 26 24 23 24 24 23 23 21 13 12 21 17 15 11 11 11 13 14 15 17 17 19 17 18
61 55 51 46 41 37 34 33 32 31 32 25 28 25 21 16 20 22 23 24 25 23 24 21 17 18 15 13 14 12 13 14 12 10 10 11 13 15 15 15 16 15 17
63 56 51 46 42 38 35 33 32 29 26 25 22 15 14 13 16 21 23 23 19 18 17 21 18 14 9 16 15 9 10 9 8 7 7 10 10 12 12 12 13 14 15
65 58 53 47 42 40 37 34 33 27 28 30 22 24 15 16 13 14 19 14 17 16 22 22 17 12 10 10 12 10 11 6 5 5 8 9 11 11 12 13 11 11 12
66 59 53 50 44 43 40 39 34 30 29 24 18 16 12 11 12 17 18 16 13 18 11 13 11 12 14 21 12 12 11 12 9 7 13 6 10 10 9 11 11 9 8
68 59 56 53 49 48 40 41 37 29 25 24 17 16 13 8 15 11 13 17 15 12 7 12 12 5 9 12 10 13 12 14 11 10 11 8 10 11 9 8 7 6 7
68 64 56 58 54 54 43 43 36 27 27 27 25 17 12 4 9 4 14 18 12 11 7 7 6 1 12 12 15 7 9 11 11 10 10 10 11 10 10 8 7 8 6
71 65 61 64 59 59 48 48 38 31 30 32 26 22 12 5 4 6 9 16 10 13 13 8 7 5 13 20 14 10 8 6 7 8 8 8 9 8 9 9 4 4 3
72 67 64 68 63 56 53 49 41 33 35 36 30 24 17 10 4 11 11 10 15 13 11 12 9 6 11 18 16 9 9 10 5 9 9 8 5 5 4 3 1 1 4
78 75 72 71 68 63 59 57 56 49 42 38 33 28 22 19 13 9 13 11 15 9 16 13 11 12 11 17 19 17 13 13 11 10 8 12 7 3 3 2 4 6 6
86 85 79 78 74 72 66 62 59 59 56 47 40 34 31 26 21 15 15 18 15 15 12 11 12 21 16 13 22 20 15 12 12 11 8 7 7 8 7 5 4 3 4
93 90 88 86 80 83 76 70 69 61 63 60 56 46 37 31 27 21 15 20 19 21 15 14 13 19 15 17 19 13 14 9 15 11 13 15 13 13 13 1 7 3 3
105 99 93 86 85 86 86 76 72 67 75 74 66 55 45 37 32 27 22 20 25 25 20 14 18 20 17 25 21 15 19 14 17 13 19 17 17 19 12 5 3 5 7
105 106 102 96 89 86 93 84 73 69 68 77 72 61 54 45 39 33 27 23 27 29 24 18 19 26 23 27 25 19 23 16 20 16 16 22 22 19 15 10 5 4 1
102 112 110 104 99 90 95 90 81 71 65 66 68 67 57 53 52 43 33 30 31 28 26 25 21 24 28 26 24 30 23 21 24 22 22 18 21 17 17 18 17 12 11
Wind_Direction_850mb
144 140 139 136 134 132 129 126 127 124 126 128 130 133 138 142 142 141 139 134 131 121 119 112 100 91 103 124 136 136 135 130 121 112 103 105 108 109 94 102 100 98 97
148 144 144 141 137 134 133 130 124 125 126 127 132 135 137 135 136 135 131 131 129 124 115 103 94 88 102 110 117 123 125 125 118 104 106 113 118 107 96 101 100 98 100
150 147 148 144 140 137 134 128 125 124 125 126 123 128 128 129 131 130 128 121 120 120 110 104 100 96 102 108 113 116 119 114 117 122 114 111 115 110 104 105 105 105 107
151 150 153 147 141 139 134 130 127 125 124 126 127 123 123 123 124 126 128 122 117 113 105 108 99 104 106 104 114 117 118 107 108 111 122 115 111 105 107 108 109 109 110
154 154 152 149 144 139 134 128 127 126 125 120 119 120 119 117 122 123 125 119 110 106 102 99 99 106 111 111 120 117 121 111 106 93 99 99 113 115 115 114 114 114 113
153 154 153 151 146 140 135 131 128 123 125 122 113 117 123 122 122 121 118 116 110 104 101 105 109 116 115 112 118 111 113 121 99 88 90 103 113 118 118 111 116 117 116
154 155 155 154 149 144 137 135 129 124 128 124 120 120 119 118 119 116 114 111 106 101 97 101 114 124 125 118 118 116 104 105 90 85 95 106 112 117 122 120 123 122 119
155 156 157 157 154 148 140 139 136 130 132 130 127 122 121 117 116 113 108 105 106 102 91 91 118 129 140 123 113 111 107 95 92 92 92 100 113 123 125 123 126 125 123
159 159 159 160 158 150 145 144 139 135 135 134 131 129 126 123 118 114 109 106 108 99 84 79 101 122 139 128 119 123 107 92 89 91 98 96 113 120 125 127 125 129 130
162 161 161 162 160 153 151 144 138 141 140 137 133 132 130 127 125 122 116 111 110 99 91 88 99 116 130 129 114 111 107 108 101 88 99 107 117 124 130 130 134 133 132
168 167 168 164 161 160 155 145 143 150 145 139 132 130 131 132 134 132 125 116 112 112 101 100 101 111 126 128 114 108 110 112 99 76 112 117 129 128 131 134 136 133 135
173 172 171 166 166 166 157 150 154 159 149 141 134 137 137 137 137 139 134 126 124 120 117 113 113 117 125 122 115 121 107 98 88 73 106 123 136 139 138 132 132 133 140
176 176 175 171 172 169 159 157 158 159 151 154 138 135 139 146 140 142 134 127 121 115 117 120 125 115 125 141 114 123 123 81 94 93 112 126 130 140 142 144 144 136 138
180 181 177 176 177 173 165 164 164 159 151 148 151 151 149 147 138 138 131 121 116 126 128 138 134 132 147 168 161 142 125 140 118 115 112 122 137 139 143 145 151 155 151
184 184 183 181 181 177 171 169 167 157 151 156 136 120 128 131 143 162 159 145 124 105 132 142 137 130 113 143 146 141 117 132 138 116 94 121 141 154 152 154 157 155 161
186 187 186 187 184 179 172 170 161 163 155 163 152 138 134 152 135 122 136 158 141 145 134 167 154 144 121 129 125 155 151 128 132 120 73 104 139 147 157 159 160 164 180
189 188 192 192 186 177 172 174 178 177 177 184 148 154 157 139 146 139 161 147 127 127 148 158 145 151 146 153 133 135 129 138 122 117 94 97 124 143 152 161 164 174 199
192 193 194 195 191 185 182 181 184 196 196 188 189 191 186 206 203 207 183 175 148 144 142 143 124 69 164 158 144 178 138 141 131 127 120 98 96 116 133 149 180 195 207
195 195 198 195 192 193 188 188 199 207 198 190 189 194 197 221 228 217 174 186 178 171 176 170 142 143 144 154 144 146 166 150 176 157 152 109 104 103 119 118 143 179 204
201 199 197 197 197 196 196 198 203 209 205 201 205 199 202 221 239 210 210 193 199 192 198 169 181 215 169 160 156 144 173 200 203 184 155 175 131 139 117 74 14 71 46
206 203 200 201 202 201 200 201 206 212 209 208 207 204 217 229 231 240 226 222 206 209 190 201 208 201 177 171 166 176 187 187 183 165 200 211 209 203 208 237 57 155 1
208 209 209 208 211 209 208 208 211 212 217 221 222 213 216 222 228 238 239 231 239 212 212 232 210 185 192 182 168 159 176 200 206 223 218 199 207 229 222 270 275 299 306
211 209 213 216 219 217 215 215 217 219 223 224 223 221 218 220 224 230 238 233 234 212 208 216 196 185 195 179 176 180 170 200 199 231 221 220 227 224 217 180 38 348 101
214 214 215 216 222 220 218 219 222 226 224 225 227 227 225 225 226 224 237 240 232 228 216 207 211 203 203 188 187 216 208 210 193 214 223 216 223 223 222 209 164 71 65
208 214 215 219 221 220 219 221 223 227 229 228 229 230 228 227 232 232 231 244 241 231 216 208 217 208 200 205 221 224 218 217 222 239 227 230 237 233 231 242 251 214 105
207 214 216 218 221 222 221 222 224 228 231 230 230 229 226 228 231 233 230 239 241 230 222 217 209 210 211 213 229 224 222 228 229 232 247 249 257 263 268 260 257 262 250